User: anonymous   Login
Location: Unspecified
(0.0000°N, 0.0000°E)
Time: 19:09:14
(UTC+00:00)
Language:

STARLINK-5351 - Orbit

View from above orbital plane
View from above orbital plane
View from above satellite
View from above satellite

Ground track
Ground track

The orbit is defined by the following mean orbital elements,

1 56511U          26145.46726205 +.00000000 +00000-0 +44456-4 0 00008
2 56511  43.0022 138.7237 0001111 269.2693  90.8032 15.27577517    02
Epoch (UTC): 25 May 2026 11:12:51
Eccentricity: 0.0001111
inclination: 43.0022°
perigee height: 482 km
apogee height: 484 km
right ascension of ascending node: 138.7237°
argument of perigee: 269.2693°
revolutions per day: 15.27577517
mean anomaly at epoch: 90.8032°

The dashed part of the orbit path shows where the satellite is in the earth's shadow,  

DLR